Overview Statistics Trail Chart Weather Telemetry Raw packets
 

This is the latest recevied weather packets stored in our database for station/object W3AJR. If no packets are shown the sender has not sent any weather packets the latest 10 day(s).

<< 5 6 7 8 9 10 11 >>
Time Temp. Humidity Pressure Rain* Wind** Luminosity Snow
1788562381 23.33° C 99% 1012 hPa 0 mm - 10 W/m² -
1788562080 23.33° C 99% 1012.1 hPa 0 mm - 17 W/m² -
1788561776 23.33° C 99% 1012.2 hPa 0 mm - 26 W/m² -
1788561475 23.33° C 99% 1012 hPa 0 mm - 34 W/m² -
1788561170 23.33° C 99% 1012.3 hPa 0 mm - 35 W/m² -
1788560866 23.33° C 99% 1012 hPa 0 mm - 38 W/m² -
1788560561 23.33° C 99% 1011.5 hPa 0 mm - 36 W/m² -
1788560264 23.33° C 99% 1011.5 hPa 0 mm - 27 W/m² -
1788559956 23.33° C 99% 1011.7 hPa 0 mm - 14 W/m² -
1788559651 23.33° C 99% 1011.9 hPa 0 mm - 12 W/m² -
1788559346 23.33° C 99% 1012.1 hPa 0 mm - 11 W/m² -
1788559045 23.33° C 99% 1012.3 hPa 0 mm - 11 W/m² -
1788558736 23.33° C 99% 1012.6 hPa 0 mm - 10 W/m² -
1788558442 23.33° C 99% 1012.9 hPa 1.27 mm - 8 W/m² -
1788558126 23.33° C 99% 1012.9 hPa 1.27 mm - 7 W/m² -
1788557824 22.78° C 99% 1013.2 hPa 0 mm - 5 W/m² -
1788557521 23.33° C 99% 1013.9 hPa 0 mm - 4 W/m² -
1788557215 23.33° C 99% 1013.8 hPa 0 mm - 3 W/m² -
1788556910 22.78° C 99% 1013.5 hPa 0 mm - 4 W/m² -
1788556627 23.33° C 98% 1013.8 hPa 1.78 mm - 4 W/m² -
1788556300 23.33° C 97% 1013.6 hPa 10.67 mm - 3 W/m² -
1788555999 23.89° C 95% 1013.3 hPa 10.67 mm - 4 W/m² -
1788555695 24.44° C 92% 1013.5 hPa 1.78 mm - 7 W/m² -
1788555391 24.44° C 93% 1013.5 hPa 0 mm - 6 W/m² -
1788555087 23.89° C 95% 1013 hPa 0 mm - 23 W/m² -

* Rain latest hour (hover to see other rain measurements)
** Current wind speed in m/s (hover to see current wind gust speed)